When you browse on this site, cookies collect data to enhance your experience and personalize the content and advertising you see.
Visit our Privacy Policy to learn more. By continuing to use the site, you agree to this use of cookies and data.
  • In Sweden
  • List of Countries
  • For 7 days
  • Water Temperature
  • Weather Map
  • Weather Widgets
  • user-avatar
    Login

    Hourly Weather Pervomaysk

    Today, 22 October, Tuesday

    Time Temperature Precipitation Wind Pressure Humidity
    00:00 +12°C° 0 mm 0 mps 753 mmHg 86%
    01:00 +12°C° 0 mm 0 mps 754 mmHg 87%
    02:00 +12°C° 0 mm 0 mps 754 mmHg 86%
    03:00 +12°C° 0 mm 0 mps 754 mmHg 87%
    04:00 +12°C° 0 mm 0 mps 754 mmHg 87%
    05:00 +11°C° 0 mm 0 mps 754 mmHg 88%
    06:00 +12°C° 0 mm 0 mps 754 mmHg 87%
    07:00 +12°C° 0 mm 0 mps 755 mmHg 86%
    08:00 +13°C° 0 mm 0 mps 755 mmHg 82%
    09:00 +15°C° 0 mm 1 mps 755 mmHg 76%
    10:00 +18°C° 0 mm 1 mps 755 mmHg 70%
    11:00 +19°C° 0 mm 1 mps 755 mmHg 64%
    12:00 +20°C° 0 mm 1 mps 755 mmHg 60%
    13:00 +21°C° 0 mm 1 mps 755 mmHg 57%
    14:00 +22°C° 0 mm 1 mps 755 mmHg 56%
    15:00 +21°C° 0 mm 1 mps 754 mmHg 62%
    16:00 +19°C° 0 mm 1 mps 754 mmHg 68%
    17:00 +18°C° 0 mm 1 mps 754 mmHg 73%
    18:00 +16°C° 0 mm 1 mps 754 mmHg 77%
    19:00 +16°C° 0 mm 1 mps 754 mmHg 80%
    20:00 +15°C° 0 mm 1 mps 754 mmHg 84%
    21:00 +15°C° 0 mm 1 mps 754 mmHg 85%
    22:00 +14°C° 0 mm 1 mps 753 mmHg 87%
    23:00 +14°C° 0 mm 2 mps 753 mmHg 88%

    Tomorrow, 23 October, Wednesday

    Time Temperature Precipitation Wind Pressure Humidity
    00:00 +14°C° 0 mm 2 mps 753 mmHg 89%
    01:00 +14°C° 0 mm 2 mps 753 mmHg 90%
    02:00 +13°C° 0 mm 2 mps 753 mmHg 91%
    03:00 +13°C° 0 mm 2 mps 753 mmHg 92%
    04:00 +13°C° 0 mm 1 mps 753 mmHg 92%
    05:00 +13°C° 0 mm 1 mps 753 mmHg 93%
    06:00 +13°C° 0 mm 1 mps 753 mmHg 92%
    07:00 +13°C° 0 mm 1 mps 753 mmHg 91%
    08:00 +12°C° 0 mm 0 mps 753 mmHg 91%
    09:00 +15°C° 0 mm 1 mps 753 mmHg 83%
    10:00 +16°C° 0 mm 1 mps 753 mmHg 76%
    11:00 +19°C° 0 mm 1 mps 753 mmHg 68%
    12:00 +20°C° 0 mm 1 mps 753 mmHg 66%
    13:00 +20°C° 0 mm 1 mps 753 mmHg 64%
    14:00 +21°C° 0 mm 1 mps 753 mmHg 61%
    15:00 +20°C° 0 mm 1 mps 753 mmHg 67%
    16:00 +18°C° 0 mm 1 mps 753 mmHg 73%
    17:00 +16°C° 0 mm 1 mps 753 mmHg 78%
    18:00 +15°C° 0 mm 1 mps 753 mmHg 82%
    19:00 +15°C° 0 mm 1 mps 753 mmHg 86%
    20:00 +14°C° 0 mm 1 mps 753 mmHg 89%
    21:00 +13°C° 0 mm 1 mps 753 mmHg 90%
    22:00 +13°C° 0 mm 1 mps 753 mmHg 91%
    23:00 +13°C° 0 mm 1 mps 753 mmHg 92%

    Day after tomorrow, 24 October, Thursday

    Time Temperature Precipitation Wind Pressure Humidity
    00:00 +12°C° 0 mm 1 mps 753 mmHg 93%
    01:00 +12°C° 0 mm 1 mps 753 mmHg 93%
    02:00 +12°C° 0 mm 1 mps 753 mmHg 93%
    03:00 +12°C° 0 mm 1 mps 753 mmHg 94%
    04:00 +12°C° 0 mm 1 mps 752 mmHg 94%
    05:00 +11°C° 0 mm 1 mps 752 mmHg 94%
    06:00 +10°C° 0 mm 2 mps 752 mmHg 94%
    07:00 +12°C° 0 mm 2 mps 752 mmHg 95%
    08:00 +12°C° 0 mm 2 mps 752 mmHg 95%
    09:00 +13°C° 0 mm 2 mps 752 mmHg 88%
    10:00 +15°C° 0 mm 2 mps 752 mmHg 81%
    11:00 +17°C° 0 mm 2 mps 752 mmHg 75%
    12:00 +18°C° 0 mm 2 mps 752 mmHg 72%
    13:00 +19°C° 0 mm 3 mps 752 mmHg 68%
    14:00 +19°C° 0 mm 3 mps 751 mmHg 65%
    15:00 +18°C° 0 mm 3 mps 751 mmHg 71%
    16:00 +17°C° 0 mm 2 mps 751 mmHg 76%
    17:00 +16°C° 0 mm 2 mps 751 mmHg 81%
    18:00 +14°C° 0 mm 3 mps 751 mmHg 84%
    19:00 +14°C° 0 mm 3 mps 751 mmHg 87%
    20:00 +13°C° 0 mm 3 mps 751 mmHg 90%
    21:00 +13°C° 0 mm 3 mps 751 mmHg 90%
    22:00 +12°C° 0 mm 3 mps 751 mmHg 91%
    23:00 +12°C° 0 mm 3 mps 751 mmHg 92%

    25 October, Friday

    Time Temperature Precipitation Wind Pressure Humidity
    00:00 +12°C° 0 mm 3 mps 751 mmHg 92%
    01:00 +12°C° 0 mm 3 mps 751 mmHg 92%
    02:00 +11°C° 0 mm 3 mps 750 mmHg 92%
    03:00 +11°C° 0 mm 3 mps 750 mmHg 92%
    04:00 +11°C° 0 mm 3 mps 750 mmHg 91%
    05:00 +11°C° 0 mm 3 mps 750 mmHg 91%
    06:00 +11°C° 0 mm 3 mps 750 mmHg 88%
    07:00 +11°C° 0 mm 3 mps 750 mmHg 86%
    08:00 +11°C° 0 mm 3 mps 750 mmHg 84%
    09:00 +13°C° 0 mm 3 mps 750 mmHg 76%
    10:00 +14°C° 0 mm 3 mps 750 mmHg 69%
    11:00 +17°C° 0 mm 3 mps 750 mmHg 61%
    12:00 +18°C° 0 mm 3 mps 750 mmHg 59%
    13:00 +19°C° 0 mm 3 mps 750 mmHg 57%
    14:00 +20°C° 0 mm 3 mps 750 mmHg 54%
    15:00 +19°C° 0 mm 2 mps 750 mmHg 59%
    16:00 +17°C° 0 mm 2 mps 750 mmHg 64%
    17:00 +16°C° 0 mm 2 mps 750 mmHg 70%
    18:00 +15°C° 0 mm 2 mps 750 mmHg 73%
    19:00 +14°C° 0 mm 2 mps 750 mmHg 77%
    20:00 +14°C° 0 mm 2 mps 751 mmHg 80%
    21:00 +13°C° 0 mm 2 mps 751 mmHg 84%
    22:00 +13°C° 0 mm 2 mps 751 mmHg 88%
    23:00 +12°C° 0 mm 2 mps 751 mmHg 91%

    26 October, Saturday

    Time Temperature Precipitation Wind Pressure Humidity
    00:00 +12°C° 0 mm 2 mps 751 mmHg 92%
    01:00 +12°C° 0 mm 2 mps 752 mmHg 93%
    02:00 +11°C° 0 mm 1 mps 752 mmHg 95%
    03:00 +11°C° 0 mm 1 mps 752 mmHg 94%
    04:00 +11°C° 0 mm 1 mps 752 mmHg 94%
    05:00 +10°C° 0 mm 0 mps 752 mmHg 94%
    06:00 +11°C° 0 mm 1 mps 752 mmHg 94%
    07:00 +11°C° 0 mm 1 mps 751 mmHg 94%
    08:00 +11°C° 0 mm 1 mps 751 mmHg 94%
    09:00 +13°C° 0 mm 1 mps 751 mmHg 87%
    10:00 +14°C° 0 mm 2 mps 751 mmHg 81%
    11:00 +16°C° 0 mm 2 mps 751 mmHg 74%
    12:00 +17°C° 0 mm 3 mps 750 mmHg 72%
    13:00 +18°C° 0 mm 3 mps 750 mmHg 69%
    14:00 +18°C° 0 mm 3 mps 749 mmHg 66%
    15:00 +17°C° 0 mm 3 mps 749 mmHg 72%
    16:00 +16°C° 0 mm 3 mps 748 mmHg 77%
    17:00 +15°C° 0 mm 2 mps 748 mmHg 83%
    18:00 +14°C° 0 mm 3 mps 748 mmHg 84%
    19:00 +13°C° 0 mm 3 mps 748 mmHg 85%
    20:00 +13°C° 0 mm 3 mps 748 mmHg 87%
    21:00 +13°C° 0 mm 3 mps 748 mmHg 86%
    22:00 +12°C° 0 mm 3 mps 748 mmHg 85%
    23:00 +12°C° 0 mm 3 mps 748 mmHg 84%

    27 October, Sunday

    Time Temperature Precipitation Wind Pressure Humidity
    00:00 +12°C° 0 mm 3 mps 747 mmHg 85%
    01:00 +12°C° 0 mm 3 mps 747 mmHg 87%
    02:00 +11°C° 0 mm 3 mps 747 mmHg 88%
    03:00 +11°C° 0 mm 3 mps 747 mmHg 89%
    04:00 +11°C° 0 mm 3 mps 747 mmHg 91%
    05:00 +10°C° 0 mm 3 mps 746 mmHg 92%
    06:00 +11°C° 0 mm 3 mps 746 mmHg 90%
    07:00 +11°C° 0 mm 4 mps 746 mmHg 88%
    08:00 +11°C° 0 mm 4 mps 746 mmHg 86%
    09:00 +12°C° 0 mm 4 mps 746 mmHg 81%
    10:00 +13°C° 0 mm 5 mps 745 mmHg 76%
    11:00 +15°C° 0 mm 6 mps 745 mmHg 71%
    12:00 +14°C° 0.1 mm 6 mps 745 mmHg 73%
    13:00 +14°C° 0.1 mm 6 mps 745 mmHg 75%
    14:00 +13°C° 0.1 mm 6 mps 745 mmHg 77%
    15:00 +11°C° 0.6 mm 6 mps 745 mmHg 77%
    16:00 +9°C° 0.6 mm 6 mps 746 mmHg 77%
    17:00 +8°C° 0.6 mm 6 mps 746 mmHg 76%
    18:00 +7°C° 0 mm 5 mps 747 mmHg 76%
    19:00 +6°C° 0 mm 5 mps 748 mmHg 76%
    20:00 +5°C° 0 mm 4 mps 748 mmHg 76%
    21:00 +5°C° 0 mm 4 mps 748 mmHg 77%
    22:00 +5°C° 0 mm 4 mps 749 mmHg 77%
    23:00 +3°C° 0 mm 5 mps 749 mmHg 78%

    28 October, Monday

    Time Temperature Precipitation Wind Pressure Humidity
    00:00 +3°C° 0 mm 5 mps 749 mmHg 78%
    01:00 +3°C° 0 mm 5 mps 748 mmHg 79%
    02:00 +3°C° 0 mm 5 mps 748 mmHg 79%
    03:00 +3°C° 0 mm 5 mps 748 mmHg 79%
    04:00 +3°C° 0 mm 5 mps 748 mmHg 80%
    05:00 +3°C° 0 mm 5 mps 747 mmHg 80%
    06:00 +3°C° 0 mm 6 mps 747 mmHg 79%
    07:00 +4°C° 0 mm 6 mps 747 mmHg 78%
    08:00 +4°C° 0 mm 6 mps 747 mmHg 77%
    09:00 +4°C° 0 mm 6 mps 747 mmHg 74%
    10:00 +5°C° 0 mm 6 mps 747 mmHg 72%
    11:00 +5°C° 0 mm 7 mps 747 mmHg 69%
    12:00 +6°C° 0 mm 7 mps 747 mmHg 66%
    13:00 +6°C° 0 mm 7 mps 747 mmHg 63%
    14:00 +6°C° 0 mm 7 mps 747 mmHg 61%
    15:00 +5°C° 0 mm 6 mps 747 mmHg 62%
    16:00 +6°C° 0 mm 5 mps 747 mmHg 64%
    17:00 +6°C° 0 mm 4 mps 746 mmHg 66%
    18:00 +5°C° 0 mm 4 mps 746 mmHg 66%
    19:00 +3°C° 0 mm 5 mps 747 mmHg 66%
    20:00 +3°C° 0 mm 5 mps 747 mmHg 67%
    21:00 +3°C° 0 mm 5 mps 747 mmHg 67%
    22:00 +2°C° 0 mm 5 mps 747 mmHg 67%
    23:00 +2°C° 0 mm 5 mps 747 mmHg 68%
    Show more